Tracking 20093 objects as of 14-Dec-2019
HD Live streaming from Space Station
objects crossing your sky now

COSMOS 2251 DEB

Track COSMOS 2251 DEB now!
10-day predictions


NORAD ID: 34007
Int'l Code: 1993-036GS
Perigee: 688.8 km
Apogee: 772.6 km
Inclination: 74.0 °
Period: 99.3 minutes
Semi major axis: 7101 km
RCS: 0.0197 m2 (small)
Launch date: June 16, 1993
Source: Commonwealth of Independent States (former USSR) (CIS)
Launch site: PLESETSK MISSILE AND SPACE COMPLEX (PKMTR)

Note: This is SATELLITE DEBRIS
aabbcc
Your satellite tracking list
Your tracking list is empty




NASA's NSSDC Master Catalog

Two Line Element Set (TLE):
1 34007U 93036GS  19347.84932029 +.00000335 +00000-0 +90592-4 0  9996
2 34007 074.0221 175.0459 0058951 131.5947 229.0288 14.50642095572248
Source of the keplerian elements: AFSPC